{"data":{"norad_id":62862,"epoch":"2026-05-25T02:59:15.122112Z","epoch_age_seconds":54404,"freshness":"FRESH","line1":"1 62862U 25022J   26145.12448058  .00013461  00000+0  46556-3 0  9998","line2":"2 62862  53.1572 134.4974 0001585 117.9043 242.2118 15.30215824 73602","mean_motion":15.30215824,"eccentricity":0.0001585,"inclination_deg":53.1572,"raan_deg":134.4974,"arg_perigee_deg":117.9043,"mean_anomaly_deg":242.2118,"bstar":0.00046556,"rev_number":7360,"period_min":94.104372560717,"perigee_km":474.08157340046,"apogee_km":476.2540710291,"semimajor_km":6853.3048222148,"source":"CELESTRAK","updated_at":"2026-05-25T13:38:19.784592Z"}}